Greenville Downtown Airport
KGMU : now visible

Airfield :











YOU CAN JOIN US ON...

 
LOGIN :

Register | Disclaimer

   EN    FR    IT 

 









Legend :    VFR   Marginal VFR   IFR   Intensive IFR   Very Intensive IFR
Visi :
Ceiling :
>= 8 km
>= 3000ft
5 to 8 km
1000 to 3000 ft
1500m to 5 km
500 to 1000 ft
800 to 1500m
200 to 500 ft
< 800m
< 200 ft
Symbols :   Thunderstorms  Fog  Heavy snow  Heavy precipitations  Wind > 20 kt






- Airport Elevation : 1048 ft


KGMU - Greenville Downtown

CURRENT METAR :
  • 042153Z 34016G22KT 10SM CLR 21/M06 A2994 RMK AO2 SLP135 T02111061

EXPIRED METARs :
  • 042053Z 35012G22KT 10SM CLR 22/M05 A2995 RMK AO2 SLP137 T02221050 56023
  • 041953Z 33006G14KT 10SM CLR 22/M04 A2996 RMK AO2 SLP141 T02221039

TAF KGMU
Valid from the 04 at 18:00 until the 05 at 18:00 UTC


041720Z 0418/0518 35010G19KT P6SM SKC
FM050100 34007KT P6SM SKC
KZTL FIR / North America



MET'MAP, your aeronautical weather chart ! - Copyright ORBIFLY December 2007 - Disclaimer

ORBIFLY MET'MAP TEAM :

Programming & Development : Alexandra Zaïnal
Concept & original design : Baudouin d'Aumeries
Assistance for programming : Marc-Olivier Méhu
Technical & hardware support : Manuel Goepfert

Contact : metmap@orbifly.com




SOURCES & CREDITS :

   NOAA       Earth
Advisory